Location: Sternwarte ZA, Rosenfeld-Brittheim
(48.2889°N, 8.6789°E)
Time: 17:41:06
(UTC+02:00)

ISS - Pass Details

Date: 25 May 2020
Orbit: 417 x 420 km, 51.6° (Epoch: 26 May)

Event Time Altitude Azimuth Distance (km) Brightness Sun altitude
Rises 00:43:29 0° 291° (WNW) 2,369 0.5 -20.2°
Reaches altitude 10° 00:45:39 10° 285° (WNW) 1,503 -0.7 -20.2°
Enters shadow 00:47:37 29° 264° (W) 803 -2.4 -20.3°
